GW4247 Weather Reports


time (UTC)temp
C
wind
direction
speed
KPH
gust
KPH
rain 1hr
cm
rain 24hr
cm
rain mn
cm
humidity
%
barometer
mb
20260508135556 11 313 4.8 4.8 0.00 0.00 0.00 62 1004.5
20260508135053 12 299 4.8 4.8 0.00 0.00 0.00 63 1004.4
20260508134549 12 259 4.8 6.4 0.00 0.00 0.00 62 1004.4
20260508134047 12 261 3.2 4.8 0.00 0.00 0.00 62 1004.5
20260508133543 11 301 6.4 6.4 0.00 0.00 0.00 63 1004.5
20260508133041 11 248 6.4 9.7 0.00 0.00 0.00 62 1004.4
20260508132539 12 303 9.7 12.9 0.00 0.00 0.00 62 1004.6
20260508132035 12 267 3.2 4.8 0.00 0.00 0.00 64 1004.3
20260508131530 12 257 4.8 6.4 0.00 0.00 0.00 62 1004.4
20260508131027 11 280 3.2 4.8 0.00 0.00 0.00 64 1004.4
20260508130524 10 281 3.2 3.2 0.00 0.00 0.00 67 1004.4
20260508130021 10 294 4.8 4.8 0.00 0.00 0.00 66 1004.3
20260508125516 10 273 3.2 4.8 0.00 0.00 0.00 66 1004.3
20260508125015 10 281 3.2 4.8 0.00 0.00 0.00 67 1004.4
20260508124512 10 322 4.8 9.7 0.00 0.00 0.00 67 1004.3
20260508124009 10 307 3.2 3.2 0.00 0.00 0.00 68 1004.1
20260508123508 10 294 3.2 4.8 0.00 0.00 0.00 67 1004.2
20260508123004 10 279 4.8 9.7 0.00 0.00 0.00 67 1004.3
20260508122501 10 289 4.8 6.4 0.00 0.00 0.00 68 1004.3
20260508121958 9 198 6.4 6.4 0.00 0.00 0.00 69 1004.4
20260508121456 9 301 4.8 6.4 0.00 0.00 0.00 69 1004.3
20260508120953 9 275 1.6 3.2 0.00 0.00 0.00 70 1004.2
20260508120451 8 273 3.2 4.8 0.00 0.00 0.00 72 1004.3
20260508115949 8 288 6.4 6.4 0.00 0.00 0.00 72 1004.5
20260508115446 8 290 4.8 4.8 0.00 0.00 0.00 73 1004.2
20260508114942 8 271 1.6 3.2 0.00 0.00 0.00 74 1004.1
20260508114440 7 274 1.6 1.6 0.00 0.00 0.00 74 1004.1
20260508113936 7 314 3.2 4.8 0.00 0.00 0.00 75 1004.2
20260508113434 7 285 1.6 1.6 0.00 0.00 0.00 78 1004.0
20260508112931 6 303 3.2 3.2 0.00 0.00 0.00 78 1004.1
20260508112427 6 280 0.0 0.0 0.00 0.00 0.00 79 1004.0
20260508111924 6 281 1.6 1.6 0.00 0.00 0.00 79 1004.0
20260508111421 6 279 1.6 1.6 0.00 0.00 0.00 79 1004.1
20260508110918 6 279 1.6 1.6 0.00 0.00 0.00 80 1003.9
20260508110417 6 284 0.0 1.6 0.00 0.00 0.00 80 1003.9
20260508105915 6 279 1.6 1.6 0.00 0.00 0.00 81 1003.8
20260508105412 6 280 1.6 1.6 0.00 0.00 0.00 80 1003.8
20260508104909 6 280 0.0 1.6 0.00 0.00 0.00 81 1003.8
20260508104407 6 284 0.0 0.0 0.00 0.00 0.00 81 1003.9
20260508103903 5 280 1.6 1.6 0.00 0.00 0.00 82 1003.8
20260508103401 5 282 0.0 0.0 0.00 0.00 0.00 82 1003.5
20260508102858 5 279 0.0 0.0 0.00 0.00 0.00 82 1003.7
20260508102356 5 284 0.0 0.0 0.00 0.00 0.00 82 1003.5
20260508101853 5 280 0.0 0.0 0.00 0.00 0.00 82 1003.6
20260508101350 5 283 0.0 0.0 0.00 0.00 0.00 82 1003.6
20260508100848 5 280 0.0 1.6 0.00 0.00 0.00 82 1003.5
20260508100346 5 281 0.0 0.0 0.00 0.00 0.00 82 1003.5
20260508095841 5 279 0.0 0.0 0.00 0.00 0.00 81 1003.5
20260508095340 5 275 0.0 0.0 0.00 0.00 0.00 81 1003.6
20260508094836 5 288 0.0 1.6 0.00 0.00 0.00 81 1003.5
20260508094333 5 284 0.0 1.6 0.00 0.00 0.00 81 1003.4
20260508093830 5 277 1.6 1.6 0.00 0.00 0.00 82 1003.5
20260508093327 5 281 0.0 1.6 0.00 0.00 0.00 82 1003.7
20260508092825 5 277 0.0 0.0 0.00 0.00 0.00 83 1003.6
20260508092323 5 281 0.0 0.0 0.00 0.00 0.00 83 1003.7
20260508091821 5 274 0.0 0.0 0.00 0.00 0.00 83 1003.6
20260508091317 5 278 0.0 0.0 0.00 0.00 0.00 84 1003.6
20260508090815 5 278 0.0 0.0 0.00 0.00 0.00 82 1003.8
20260508090314 5 274 0.0 0.0 0.00 0.00 0.00 81 1003.8
20260508085809 5 277 0.0 0.0 0.00 0.00 0.00 81 1003.7
20260508085307 5 279 0.0 1.6 0.00 0.00 0.00 82 1003.6
20260508084802 5 279 0.0 0.0 0.00 0.00 0.00 83 1003.7
20260508084259 5 278 1.6 1.6 0.00 0.00 0.00 84 1003.7
20260508083757 5 275 0.0 0.0 0.00 0.00 0.00 84 1003.5
20260508083254 5 275 0.0 0.0 0.00 0.00 0.00 85 1003.6
20260508082753 5 275 0.0 0.0 0.00 0.00 0.00 86 1003.7
20260508082251 5 274 0.0 0.0 0.00 0.00 0.00 85 1003.5
20260508081748 5 277 0.0 0.0 0.00 0.00 0.00 84 1003.6
20260508081245 5 277 0.0 0.0 0.00 0.00 0.00 84 1003.7
20260508080742 5 276 0.0 0.0 0.00 0.00 0.00 83 1003.5
20260508080240 6 276 0.0 0.0 0.00 0.00 0.00 82 1003.8
20260508075736 6 276 0.0 0.0 0.00 0.00 0.00 82 1003.5
20260508075233 6 277 0.0 0.0 0.00 0.00 0.00 83 1003.8
20260508074731 6 280 0.0 0.0 0.00 0.00 0.00 83 1003.6
20260508074228 6 280 0.0 0.0 0.00 0.00 0.00 82 1003.6
20260508073725 6 280 0.0 0.0 0.00 0.00 0.00 82 1003.7
20260508073223 7 282 0.0 0.0 0.00 0.00 0.00 82 1003.8
20260508072719 7 282 0.0 0.0 0.00 0.00 0.00 81 1003.8
20260508072216 7 269 0.0 0.0 0.00 0.00 0.00 82 1003.8
20260508071713 7 279 0.0 0.0 0.00 0.00 0.00 82 1004.0
20260508071212 7 279 0.0 0.0 0.00 0.00 0.00 81 1004.2
20260508070708 7 279 0.0 0.0 0.00 0.00 0.00 79 1004.2
20260508070207 7 279 0.0 0.0 0.00 0.00 0.00 78 1004.4
20260508065704 8 273 0.0 0.0 0.00 0.00 0.00 77 1004.1
20260508065202 8 272 0.0 0.0 0.00 0.00 0.00 75 1004.1
20260508064659 8 272 0.0 0.0 0.00 0.00 0.00 73 1004.3
20260508064157 8 267 0.0 0.0 0.00 0.00 0.00 75 1004.3
20260508063654 8 279 0.0 0.0 0.00 0.00 0.00 72 1004.5
20260508063152 8 279 0.0 0.0 0.00 0.00 0.00 70 1004.3
20260508062649 8 267 0.0 0.0 0.00 0.00 0.00 70 1004.5
20260508062146 8 275 1.6 1.6 0.00 0.00 0.00 69 1004.8
20260508061643 8 256 3.2 3.2 0.00 0.00 0.00 67 1004.3
20260508061141 8 281 0.0 0.0 0.00 0.00 0.00 67 1004.3
20260508060637 8 277 3.2 3.2 0.00 0.00 0.00 66 1004.2
20260508060135 8 284 3.2 4.8 0.00 0.00 0.00 67 1004.0
20260508055630 8 281 1.6 1.6 0.00 0.00 0.00 68 1004.0
20260508055127 8 287 0.0 0.0 0.00 0.00 0.00 68 1003.8
20260508054624 8 281 0.0 0.0 0.00 0.00 0.00 70 1003.9
20260508054121 8 281 1.6 1.6 0.00 0.00 0.00 70 1004.1
20260508053618 8 286 1.6 1.6 0.00 0.00 0.00 70 1003.9
20260508053116 7 283 0.0 0.0 0.00 0.00 0.00 72 1003.9
20260508052613 7 279 0.0 1.6 0.00 0.00 0.00 74 1004.2
20260508052110 7 278 0.0 0.0 0.00 0.00 0.00 76 1004.1
20260508051606 6 280 0.0 0.0 0.00 0.00 0.00 78 1004.1
20260508051101 6 285 0.0 0.0 0.00 0.00 0.00 80 1004.0
20260508050558 6 273 0.0 0.0 0.00 0.00 0.00 83 1004.0
20260508050056 6 282 0.0 0.0 0.00 0.00 0.00 84 1004.2
20260508045552 6 283 0.0 0.0 0.00 0.00 0.00 85 1004.3
20260508045050 6 282 0.0 0.0 0.00 0.00 0.00 87 1004.3
20260508044547 6 281 0.0 0.0 0.00 0.00 0.00 89 1004.3
20260508044043 6 283 0.0 0.0 0.00 0.00 0.00 89 1004.3
20260508043539 6 284 0.0 0.0 0.00 0.00 0.00 89 1004.2
20260508043037 6 284 0.0 0.0 0.00 0.00 0.00 89 1004.1
20260508042533 5 283 0.0 0.0 0.00 0.00 0.00 89 1004.1
20260508042031 5 283 0.0 0.0 0.00 0.00 0.00 89 1004.0
20260508041526 5 284 0.0 0.0 0.00 0.00 0.00 89 1004.0
20260508041023 5 285 0.0 0.0 0.00 0.00 0.00 89 1004.3
20260508040520 5 280 0.0 0.0 0.00 0.00 0.00 88 1004.2
20260508040018 5 285 0.0 0.0 0.00 0.00 0.00 87 1004.1
20260508035515 5 286 0.0 0.0 0.00 0.00 0.00 87 1004.1
20260508035012 5 280 0.0 0.0 0.00 0.00 0.00 88 1004.1
20260508034509 5 284 0.0 0.0 0.00 0.00 0.00 89 1004.1
20260508034006 5 281 0.0 0.0 0.00 0.00 0.00 89 1004.2
20260508033504 5 281 0.0 0.0 0.00 0.00 0.00 89 1004.2
20260508033001 5 283 0.0 0.0 0.00 0.00 0.00 89 1004.1
20260508032458 5 283 0.0 0.0 0.00 0.00 0.00 89 1004.1
20260508031955 5 281 0.0 0.0 0.00 0.00 0.00 90 1004.0
20260508031453 5 294 0.0 0.0 0.00 0.00 0.00 91 1003.8
20260508030947 5 281 0.0 0.0 0.00 0.00 0.00 91 1004.0
20260508030445 5 281 0.0 0.0 0.00 0.00 0.00 91 1004.1
20260508025942 5 286 0.0 0.0 0.00 0.00 0.00 91 1004.0
20260508025433 5 286 0.0 0.0 0.00 0.00 0.00 90 1004.2
20260508024930 5 279 0.0 0.0 0.00 0.00 0.00 89 1004.4
20260508024426 5 278 0.0 0.0 0.00 0.00 0.00 89 1004.3
20260508023923 5 283 0.0 0.0 0.00 0.00 0.00 89 1004.1
20260508023420 5 290 0.0 0.0 0.00 0.00 0.00 89 1004.0
20260508022917 5 283 0.0 0.0 0.00 0.00 0.00 88 1004.2
20260508022412 5 286 0.0 0.0 0.00 0.00 0.00 87 1004.0
20260508021909 5 283 0.0 0.0 0.00 0.00 0.00 87 1004.1
20260508021406 5 283 0.0 0.0 0.00 0.00 0.00 85 1004.1
20260508020901 5 285 0.0 0.0 0.00 0.00 0.00 85 1004.0
20260508020400 5 278 0.0 0.0 0.00 0.00 0.00 83 1004.1
20260508015856 5 282 0.0 0.0 0.00 0.00 0.00 82 1004.2
20260508015354 6 281 0.0 0.0 0.00 0.00 0.00 81 1003.9
20260508014850 6 278 0.0 0.0 0.00 0.00 0.00 80 1004.2
20260508014348 6 273 0.0 0.0 0.00 0.00 0.00 79 1004.3
20260508013843 6 279 0.0 0.0 0.00 0.00 0.00 77 1004.0
20260508013340 6 281 0.0 0.0 0.00 0.00 0.00 74 1004.2
20260508012837 6 280 0.0 0.0 0.00 0.00 0.00 72 1004.0
20260508012334 6 277 0.0 0.0 0.00 0.00 0.00 70 1003.9
20260508011832 7 278 0.0 0.0 0.00 0.00 0.00 68 1004.0
20260508011330 7 281 0.0 0.0 0.00 0.00 0.00 69 1003.8
20260508010826 7 281 0.0 0.0 0.00 0.00 0.00 68 1003.7
20260508010324 7 275 0.0 0.0 0.00 0.00 0.00 66 1003.8
20260508005821 7 281 0.0 0.0 0.00 0.00 0.00 65 1003.6
20260508005318 8 279 0.0 0.0 0.00 0.00 0.00 65 1003.7
20260508004814 8 279 0.0 0.0 0.00 0.00 0.00 63 1003.7
20260508004310 8 279 0.0 0.0 0.00 0.00 0.00 63 1003.7
20260508003806 9 276 0.0 0.0 0.00 0.00 0.00 59 1003.7
20260508003304 10 273 0.0 0.0 0.00 0.00 0.00 57 1003.6
20260508002800 10 275 0.0 0.0 0.00 0.00 0.00 56 1003.5
20260508002258 11 279 0.0 0.0 0.00 0.00 0.00 54 1003.5
20260508001753 11 268 1.6 1.6 0.00 0.00 0.00 53 1003.4
20260508001249 11 275 0.0 0.0 0.00 0.00 0.00 51 1003.4
20260508000746 11 302 0.0 0.0 0.00 0.00 0.00 53 1003.4
20260508000243 12 278 0.0 0.0 0.00 0.00 0.00 48 1003.4
20260507235739 12 282 0.0 0.0 0.00 0.00 0.00 47 1003.2
20260507235237 12 276 0.0 0.0 0.00 0.00 0.00 46 1003.4
20260507234734 12 268 3.2 3.2 0.00 0.00 0.00 44 1003.4
20260507234230 13 268 0.0 0.0 0.00 0.00 0.00 45 1003.3
20260507233727 13 279 3.2 3.2 0.00 0.00 0.00 42 1003.4
20260507233225 15 280 0.0 0.0 0.00 0.00 0.00 42 1003.4
20260507232721 15 211 1.6 3.2 0.00 0.00 0.00 42 1003.2
20260507232219 14 225 3.2 3.2 0.00 0.00 0.00 41 1003.2
20260507231715 15 263 0.0 1.6 0.00 0.00 0.00 41 1003.3
20260507231212 15 279 1.6 1.6 0.00 0.00 0.00 41 1003.2
20260507230709 15 250 1.6 3.2 0.00 0.00 0.00 41 1003.2
20260507230207 14 281 1.6 1.6 0.00 0.00 0.00 43 1003.3
20260507225705 13 276 0.0 0.0 0.00 0.00 0.00 43 1003.4
20260507225202 13 229 0.0 1.6 0.00 0.00 0.00 45 1003.4
20260507224658 12 267 1.6 6.4 0.00 0.00 0.00 45 1003.4
20260507224155 12 312 3.2 6.4 0.00 0.00 0.00 44 1003.5
20260507223651 12 269 6.4 6.4 0.00 0.00 0.00 43 1003.6
20260507223148 13 287 3.2 3.2 0.00 0.00 0.00 43 1003.5
20260507222645 13 298 3.2 3.2 0.00 0.00 0.00 42 1003.4
20260507222141 15 225 1.6 3.2 0.00 0.00 0.00 41 1003.6
20260507221638 15 255 0.0 1.6 0.00 0.00 0.00 40 1003.5
20260507221134 15 36 1.6 3.2 0.00 0.00 0.00 41 1003.5
20260507220631 16 277 0.0 1.6 0.00 0.00 0.00 41 1003.4
20260507220129 16 9 0.0 0.0 0.00 0.00 0.00 43 1003.5
20260507215625 15 82 1.6 3.2 0.00 0.00 0.00 43 1003.5
20260507215123 15 293 1.6 4.8 0.00 0.00 0.00 42 1003.4
20260507214620 15 316 3.2 3.2 0.00 0.00 0.00 42 1003.4
20260507214116 15 295 3.2 3.2 0.00 0.00 0.00 40 1003.4
20260507213612 15 275 6.4 11.3 0.00 0.00 0.00 38 1003.3
20260507213110 16 209 3.2 4.8 0.00 0.00 0.00 36 1003.1
20260507212605 15 245 3.2 3.2 0.00 0.00 0.00 42 1003.2
20260507212102 16 258 6.4 9.7 0.00 0.00 0.00 41 1003.1
20260507211559 16 277 1.6 1.6 0.00 0.00 0.00 43 1003.1
20260507211055 15 279 6.4 6.4 0.00 0.00 0.00 43 1003.3
20260507210553 15 131 6.4 11.3 0.00 0.00 0.00 41 1003.1
20260507210049 16 259 3.2 4.8 0.00 0.00 0.00 41 1003.0
20260507205546 16 279 0.0 0.0 0.00 0.00 0.00 44 1003.1
20260507205042 16 236 4.8 6.4 0.00 0.00 0.00 41 1002.9
20260507204538 16 285 0.0 1.6 0.00 0.00 0.00 44 1002.8
20260507204036 15 255 1.6 3.2 0.00 0.00 0.00 43 1002.9
20260507203534 14 146 3.2 3.2 0.00 0.00 0.00 46 1002.8
20260507203031 15 242 3.2 3.2 0.00 0.00 0.00 41 1002.7
20260507202527 16 256 1.6 3.2 0.00 0.00 0.00 43 1002.7
20260507202023 15 283 1.6 3.2 0.00 0.00 0.00 43 1002.8
20260507201519 14 309 3.2 6.4 0.00 0.00 0.00 49 1003.0
20260507201015 13 286 6.4 6.4 0.00 0.00 0.00 46 1003.0
20260507200511 13 281 3.2 3.2 0.00 0.00 0.00 48 1002.9
20260507200007 14 287 3.2 3.2 0.00 0.00 0.00 46 1003.1
20260507195504 15 299 1.6 1.6 0.00 0.00 0.00 49 1002.9
20260507195002 14 42 3.2 3.2 0.00 0.00 0.00 48 1003.0
20260507194458 15 272 3.2 6.4 0.00 0.00 0.00 43 1003.0
20260507193954 15 312 9.7 11.3 0.00 0.00 0.00 43 1003.1
20260507193452 13 206 6.4 11.3 0.00 0.00 0.00 43 1003.1
20260507192948 15 251 3.2 4.8 0.00 0.00 0.00 45 1003.1
20260507192444 14 277 1.6 1.6 0.00 0.00 0.00 48 1003.2
20260507191941 13 331 8.0 11.3 0.00 0.00 0.00 48 1003.1
20260507191437 14 251 9.7 12.9 0.00 0.00 0.00 48 1003.2
20260507190934 13 275 8.0 11.3 0.00 0.00 0.00 47 1003.2
20260507190432 14 304 12.9 14.5 0.00 0.00 0.00 48 1003.2
20260507185930 13 280 12.9 17.7 0.00 0.00 0.00 46 1003.1
20260507185427 14 284 8.0 11.3 0.00 0.00 0.00 46 1003.3
20260507184924 14 289 6.4 11.3 0.00 0.00 0.00 47 1003.1
20260507184422 14 312 8.0 9.7 0.00 0.00 0.00 46 1003.1
20260507183919 14 274 3.2 4.8 0.00 0.00 0.00 47 1003.5
20260507183416 14 298 3.2 9.7 0.00 0.00 0.00 48 1003.5
20260507182913 13 305 4.8 6.4 0.00 0.00 0.00 46 1003.4
20260507182409 13 301 6.4 9.7 0.00 0.00 0.00 48 1003.2
20260507181906 14 221 8.0 11.3 0.00 0.00 0.00 46 1003.1
20260507181401 14 273 4.8 6.4 0.00 0.00 0.00 48 1003.0
20260507180859 13 285 8.0 12.9 0.00 0.00 0.00 46 1003.3
20260507180355 13 270 1.6 3.2 0.00 0.00 0.00 52 1003.2
20260507175851 14 263 6.4 11.3 0.00 0.00 0.00 47 1003.4
20260507175348 14 280 8.0 9.7 0.00 0.00 0.00 45 1003.4
20260507174846 13 240 1.6 3.2 0.00 0.00 0.00 47 1003.6
20260507174343 13 320 8.0 11.3 0.00 0.00 0.00 47 1003.5
20260507173840 13 185 6.4 6.4 0.00 0.00 0.00 47 1003.6
20260507173337 13 273 3.2 3.2 0.00 0.00 0.00 50 1003.8
20260507172833 13 248 3.2 4.8 0.00 0.00 0.00 50 1003.8
20260507172330 12 326 6.4 9.7 0.00 0.00 0.00 47 1003.7
20260507171826 13 280 8.0 9.7 0.00 0.00 0.00 47 1003.9
20260507171323 12 195 6.4 11.3 0.00 0.00 0.00 46 1003.8
20260507170820 12 263 6.4 6.4 0.00 0.00 0.00 49 1003.8
20260507170317 12 355 11.3 12.9 0.00 0.00 0.00 48 1004.0
20260507165813 13 266 6.4 6.4 0.00 0.00 0.00 46 1004.0
20260507165309 13 268 3.2 4.8 0.00 0.00 0.00 48 1004.0
20260507164805 12 281 1.6 3.2 0.00 0.00 0.00 54 1004.3
20260507164302 12 275 8.0 16.1 0.00 0.00 0.00 48 1004.1
20260507163759 12 269 1.6 1.6 0.00 0.00 0.00 51 1004.1
20260507163257 12 230 8.0 11.3 0.00 0.00 0.00 48 1004.3
20260507162752 12 267 11.3 12.9 0.00 0.00 0.00 49 1004.1
20260507162249 12 328 8.0 9.7 0.00 0.00 0.00 53 1004.0
20260507161746 12 321 9.7 11.3 0.00 0.00 0.00 48 1004.0
20260507161242 12 241 6.4 6.4 0.00 0.00 0.00 49 1004.2
20260507160738 12 289 14.5 20.9 0.00 0.00 0.00 48 1004.1
20260507160235 12 325 3.2 4.8 0.00 0.00 0.00 49 1004.1
20260507155731 12 273 4.8 12.9 0.00 0.00 0.00 49 1004.0
20260507155227 12 266 6.4 6.4 0.00 0.00 0.00 46 1004.0
20260507154724 12 270 8.0 12.9 0.00 0.00 0.00 48 1003.9
20260507154221 12 277 8.0 11.3 0.00 0.00 0.00 47 1004.1
20260507153717 12 248 8.0 11.3 0.00 0.00 0.00 50 1003.9
20260507153214 12 259 8.0 11.3 0.00 0.00 0.00 48 1003.9
20260507152711 12 273 3.2 3.2 0.00 0.00 0.00 50 1003.9
20260507152207 12 256 9.7 12.9 0.00 0.00 0.00 50 1003.6
20260507151703 12 249 1.6 1.6 0.00 0.00 0.00 49 1003.9
20260507151200 11 277 8.0 9.7 0.00 0.00 0.00 48 1003.9
20260507150657 12 301 11.3 12.9 0.00 0.00 0.00 49 1003.9
20260507150153 12 281 6.4 6.4 0.00 0.00 0.00 52 1003.9
20260507145649 11 224 3.2 4.8 0.00 0.00 0.00 52 1004.0
20260507145146 11 259 6.4 6.4 0.00 0.00 0.00 52 1004.1
20260507144643 11 321 6.4 9.7 0.00 0.00 0.00 53 1004.0
20260507144141 11 268 8.0 9.7 0.00 0.00 0.00 51 1004.1
20260507143637 12 272 3.2 4.8 0.00 0.00 0.00 52 1003.9
20260507143135 11 258 1.6 3.2 0.00 0.00 0.00 54 1004.0
20260507142630 11 299 3.2 4.8 0.00 0.00 0.00 54 1004.0
20260507142127 12 274 1.6 1.6 0.00 0.00 0.00 55 1004.1
20260507141623 12 273 0.0 1.6 0.00 0.00 0.00 55 1004.0
20260507141120 11 238 3.2 4.8 0.00 0.00 0.00 56 1004.2
20260507140616 10 243 1.6 1.6 0.00 0.00 0.00 57 1004.1
20260507140114 11 267 3.2 6.4 0.00 0.00 0.00 59 1004.1